Content
SEND FEEDBACK

Daily
Averages
Monthly
Summary
Turkey

BIRECIK, TURKEY


Home > Middle East > Turkey
Elevation: 1138 feet     Latitude: 37 00N     Longitude: 038 00E

WEATHER
 
SELECT A DAY
Number of Records: 207,210;   Date Range: 7/1/96 - 8/28/14
 
SHARE

PRINT THIS DATA

[ ← Previous Day ]
WEATHER ALMANAC - MARCH 19, 2013
[ Next Day → ]
[ °C ]   °F
Weather ElementAverageHighLow
Temperature43.6 °F53.6 °F (1:20 pm)26.6 °F (3:20 am)
Dewpoint27.1 °F30.2 °F (7:20 am)23 °F (4:20 am)
Humidity55.2 %93 % (3:20 am)23 % (2:00 pm)
Barometer30.04 in30.07 in (2:00 am)30.01 in (4:50 am)
Wind Speed3.9 mph8.1 mph (11:50 am)
Weather ElementAverage
Visibility6 mi
Wind DirectionESE (127.7 °)

Weather ElementTotal
Precipitation---
Heating Degree Days24.9 (Base 65)
Averaged from 49 records on March 19, 2013
WEATHER CONDITIONS BREAKOUT
WIND DIRECTION BREAKOUT
WEATHER BY HOUR - MARCH 19, 2013
[ °C ]   °F
Local TimeTemperatureDewpointHumidityBarometerVisibilityWind DirectionWind SpeedGust SpeedPrecipitationEventsConditions
12:50 AM30.2 °F26.6 °F86 %30.04 inCalmClear
1:20 AM33.8 °F26.6 °F75 %30.04 inNorth (10°)5.8 mphClear
1:50 AM32.0 °F26.6 °F80 %30.04 inVariable1.2 mphClear
2:00 AM32.0 °F26.0 °F71 %30.07 in6.0 mi°1.2 mph
2:20 AM32.0 °F26.6 °F80 %30.04 inWest (280°)2.3 mphClear
2:50 AM30.2 °F26.6 °F86 %30.04 inCalmClear
3:20 AM26.6 °F24.8 °F93 %30.04 inVariable2.3 mphClear
3:50 AM30.2 °F26.6 °F86 %30.04 inCalmClear
4:20 AM26.6 °F23.0 °F86 %30.04 inCalmClear
4:50 AM26.6 °F24.8 °F93 %30.01 inVariable1.2 mphClear
5:20 AM30.2 °F24.8 °F80 %30.04 inWNW (290°)4.6 mphClear
5:50 AM26.6 °F24.8 °F93 %30.04 inCalmClear
6:20 AM30.2 °F26.6 °F86 %30.04 inNW (310°)1.2 mphClear
6:50 AM32.0 °F26.6 °F80 %30.06 inCalmClear
7:20 AM37.4 °F30.2 °F75 %30.06 inCalmClear
8:20 AM46.4 °F26.6 °F46 %30.06 inEast (90°)3.5 mphClear
8:50 AM48.2 °F24.8 °F40 %30.06 inEast (80°)6.9 mphClear
9:20 AM48.2 °F23.0 °F37 %30.06 inEast (90°)6.9 mphClear
9:50 AM48.2 °F24.8 °F40 %30.06 inESE (120°)6.9 mphClear
10:20 AM50.0 °F24.8 °F37 %30.06 inESE (120°)6.9 mphClear
10:50 AM50.0 °F28.4 °F43 %30.06 inEast (80°)6.9 mphClear
11:20 AM51.8 °F28.4 °F41 %30.06 inESE (120°)6.9 mphClear
11:50 AM51.8 °F26.6 °F38 %30.04 inESE (110°)8.1 mphClear
12:20 PM51.8 °F26.6 °F38 %30.04 inSSE (160°)6.9 mphClear
12:50 PM51.8 °F26.6 °F38 %30.04 inSE (130°)6.9 mphClear
1:20 PM53.6 °F24.8 °F33 %30.04 inSSE (160°)8.1 mphClear
1:50 PM53.6 °F26.6 °F35 %30.04 inSE (140°)6.9 mphClear
2:00 PM53.0 °F26.0 °F23 %30.07 in6.0 miSE (140°)6.9 mphPartly Cloudy
2:20 PM53.6 °F24.8 °F33 %30.01 inSSE (160°)8.1 mphClear
2:50 PM51.8 °F24.8 °F35 %30.01 inSSE (150°)5.8 mphClear
3:20 PM51.8 °F26.6 °F38 %30.01 inESE (110°)3.5 mphClear
3:50 PM51.8 °F28.4 °F41 %30.01 inSE (130°)4.6 mphClear
4:20 PM51.8 °F28.4 °F41 %30.01 inESE (120°)4.6 mphClear
4:50 PM51.8 °F28.4 °F41 %30.01 inESE (110°)4.6 mphClear
5:20 PM51.8 °F30.2 °F44 %30.01 inESE (120°)4.6 mphClear
5:50 PM51.8 °F28.4 °F41 %30.01 inEast (100°)3.5 mphClear
6:20 PM50.0 °F28.4 °F43 %30.01 inVariable2.3 mphClear
6:50 PM50.0 °F30.2 °F47 %30.04 inEast (90°)4.6 mphClear
7:20 PM50.0 °F28.4 °F43 %30.04 inEast (90°)4.6 mphClear
7:50 PM48.2 °F28.4 °F46 %30.04 inVariable2.3 mphClear
8:00 PM49.0 °F28.0 °F31 %30.05 in6.0 mi°2.3 mphPartly Cloudy
8:20 PM46.4 °F30.2 °F53 %30.04 inNNW (340°)4.6 mphClear
8:50 PM46.4 °F30.2 °F53 %30.04 inNorth (350°)3.5 mphClear
9:20 PM44.6 °F30.2 °F57 %30.04 inNNW (330°)1.2 mphClear
9:50 PM44.6 °F28.4 °F53 %30.04 inNNW (330°)3.5 mphClear
10:20 PM46.4 °F28.4 °F50 %30.04 inNNW (340°)3.5 mphClear
10:50 PM42.8 °F30.2 °F61 %30.01 inCalmClear
11:20 PM42.8 °F28.4 °F57 %30.01 inNorth (360°)4.6 mphClear
11:50 PM42.8 °F28.4 °F57 %30.04 inNNW (340°)6.9 mphClear
Hourly data recorded from LTAJ, located miles away from Birecik, Turkey







STORIES FROM OUR PARTNERS